| time (UTC) | temp F | wind direction | speed knots | gust knots | rain 1hr in | rain 24hr in | rain mn in | humidity % | barometer mb |
| 20260504044550 | 49 | 267 | 5.2 | 11.3 | 0.00 | 0.00 | 0.00 | 59 | 1006.5 |
| 20260504043045 | 49 | 244 | 6.1 | 13.0 | 0.00 | 0.00 | 0.00 | 60 | 1006.5 |
| 20260504041542 | 49 | 275 | 3.5 | 10.4 | 0.00 | 0.00 | 0.00 | 60 | 1006.6 |
| 20260504040044 | 49 | 264 | 8.7 | 11.3 | 0.00 | 0.00 | 0.00 | 60 | 1006.8 |
| 20260504034539 | 49 | 242 | 3.5 | 9.6 | 0.00 | 0.00 | 0.00 | 61 | 1006.7 |
| 20260504033049 | 50 | 275 | 2.6 | 8.7 | 0.00 | 0.00 | 0.00 | 61 | 1006.8 |
| 20260504031538 | 50 | 254 | 4.3 | 7.8 | 0.00 | 0.00 | 0.00 | 60 | 1006.7 |
| 20260504030037 | 50 | 266 | 5.2 | 11.3 | 0.00 | 0.00 | 0.00 | 59 | 1006.8 |
| 20260504024545 | 51 | 269 | 5.2 | 12.2 | 0.00 | 0.00 | 0.00 | 59 | 1006.9 |
| 20260504023036 | 51 | 285 | 6.1 | 11.3 | 0.00 | 0.00 | 0.00 | 59 | 1007.1 |
| 20260504021539 | 52 | 281 | 5.2 | 13.9 | 0.00 | 0.00 | 0.00 | 59 | 1007.2 |
| 20260504020034 | 52 | 302 | 7.8 | 21.7 | 0.00 | 0.00 | 0.00 | 58 | 1007.3 |
| 20260504014534 | 52 | 271 | 8.7 | 22.6 | 0.00 | 0.00 | 0.00 | 57 | 1007.4 |
| 20260504013038 | 52 | 291 | 10.4 | 21.7 | 0.00 | 0.00 | 0.00 | 56 | 1007.2 |
| 20260504011533 | 52 | 304 | 10.4 | 16.5 | 0.00 | 0.00 | 0.00 | 57 | 1007.2 |
| 20260504010032 | 51 | 309 | 9.6 | 18.2 | 0.00 | 0.00 | 0.00 | 58 | 1007.2 |
| 20260504004541 | 51 | 299 | 7.8 | 18.2 | 0.00 | 0.00 | 0.00 | 58 | 1007.2 |
| 20260504003030 | 52 | 293 | 14.8 | 26.1 | 0.00 | 0.00 | 0.00 | 56 | 1007.5 |
| 20260504001530 | 52 | 301 | 12.2 | 20.9 | 0.00 | 0.00 | 0.00 | 53 | 1007.2 |
| 20260504000030 | 52 | 298 | 11.3 | 19.1 | 0.00 | 0.00 | 0.00 | 52 | 1007.0 |
| 20260503234529 | 52 | 285 | 12.2 | 23.5 | 0.00 | 0.00 | 0.00 | 53 | 1007.0 |
| 20260503233031 | 52 | 315 | 13.9 | 25.2 | 0.00 | 0.00 | 0.00 | 53 | 1007.2 |
| 20260503231527 | 53 | 334 | 13.0 | 25.2 | 0.00 | 0.00 | 0.00 | 51 | 1007.0 |
| 20260503230032 | 53 | 312 | 20.0 | 32.2 | 0.00 | 0.00 | 0.00 | 49 | 1006.8 |
| 20260503224526 | 54 | 301 | 16.5 | 27.8 | 0.00 | 0.00 | 0.00 | 48 | 1006.8 |
| 20260503223026 | 54 | 296 | 11.3 | 25.2 | 0.00 | 0.00 | 0.00 | 48 | 1006.7 |
| 20260503221525 | 54 | 321 | 9.6 | 23.5 | 0.00 | 0.00 | 0.00 | 49 | 1006.8 |
| 20260503220025 | 54 | 300 | 18.2 | 33.0 | 0.00 | 0.00 | 0.00 | 45 | 1006.7 |
| 20260503214523 | 55 | 312 | 11.3 | 30.4 | 0.00 | 0.00 | 0.00 | 49 | 1006.7 |
| 20260503213027 | 55 | 298 | 10.4 | 20.9 | 0.00 | 0.00 | 0.00 | 50 | 1006.5 |
| 20260503211534 | 57 | 312 | 10.4 | 23.5 | 0.00 | 0.00 | 0.00 | 48 | 1006.5 |
| 20260503210020 | 56 | 256 | 14.8 | 25.2 | 0.00 | 0.00 | 0.00 | 51 | 1006.5 |
| 20260503204518 | 56 | 325 | 12.2 | 21.7 | 0.00 | 0.00 | 0.00 | 51 | 1006.6 |
| 20260503203015 | 54 | 329 | 9.6 | 13.9 | 0.00 | 0.00 | 0.00 | 53 | 1006.9 |
| 20260503201511 | 54 | 323 | 4.3 | 9.6 | 0.00 | 0.00 | 0.00 | 54 | 1007.0 |
| 20260503200009 | 53 | 307 | 7.8 | 13.9 | 0.00 | 0.00 | 0.00 | 52 | 1007.3 |
| 20260503194506 | 53 | 313 | 7.0 | 15.6 | 0.00 | 0.00 | 0.00 | 53 | 1007.6 |
| 20260503193014 | 52 | 303 | 7.8 | 14.8 | 0.00 | 0.00 | 0.00 | 52 | 1007.8 |
| 20260503191502 | 52 | 311 | 8.7 | 13.0 | 0.00 | 0.00 | 0.00 | 55 | 1008.0 |
| 20260503184607 | 52 | 290 | 8.7 | 17.4 | 0.00 | 0.00 | 0.00 | 53 | 1008.4 |
| 20260503183054 | 51 | 291 | 9.6 | 16.5 | 0.00 | 0.00 | 0.00 | 56 | 1008.7 |
| 20260503181552 | 50 | 309 | 9.6 | 15.6 | 0.00 | 0.00 | 0.00 | 58 | 1009.1 |
| 20260503180051 | 52 | 315 | 13.0 | 20.9 | 0.00 | 0.00 | 0.00 | 54 | 1009.1 |
| 20260503174603 | 51 | 289 | 10.4 | 18.2 | 0.00 | 0.00 | 0.00 | 55 | 1009.2 |
| 20260503173049 | 51 | 334 | 9.6 | 18.2 | 0.00 | 0.00 | 0.00 | 57 | 1009.3 |
| 20260503171645 | 50 | 300 | 7.0 | 17.4 | 0.00 | 0.00 | 0.00 | 54 | 1009.4 |
| 20260503081543 | 33 | 277 | 2.6 | 7.0 | 0.00 | 0.00 | 0.00 | 66 | 1010.8 |
| 20260503071532 | 34 | 285 | 2.6 | 7.8 | 0.00 | 0.00 | 0.00 | 69 | 1010.8 |
| 20260503054526 | 36 | 283 | 5.2 | 9.6 | 0.00 | 0.00 | 0.00 | 70 | 1011.1 |
| 20260503053009 | 36 | 286 | 6.1 | 9.6 | 0.00 | 0.00 | 0.00 | 71 | 1011.2 |